EHI
6 5 8 11 10 7 6 6 4 2 0 0 0 0 0 0 0 0 0 0 0 0 0 0 1 2 2 1 0 0 0 0 0 0 0 0 0 0 0 0 0 0 0
8 6 8 11 10 8 7 6 5 3 1 0 0 0 0 0 0 0 0 0 0 0 0 0 0 1 1 0 0 0 0 0 0 0 0 0 0 0 0 0 0 0 0
9 6 6 10 11 9 7 6 6 3 1 0 0 0 0 0 0 0 0 0 0 0 0 0 0 0 0 0 0 0 0 0 0 0 0 0 0 0 0 0 0 0 0
7 5 5 9 11 10 8 6 5 3 2 0 0 0 0 0 0 0 0 0 0 0 0 0 0 0 0 0 0 0 0 0 0 0 0 0 0 0 0 0 0 0 0
6 4 6 9 11 10 8 6 5 3 1 0 0 0 0 0 0 0 0 0 0 0 0 0 0 0 0 0 0 0 0 0 0 0 0 0 0 0 0 0 0 0 0
5 4 6 10 11 11 9 6 4 3 1 0 0 1 1 1 0 0 0 0 0 0 0 0 0 0 0 0 0 0 0 0 0 0 0 0 0 0 0 0 0 0 0
5 4 6 9 11 12 9 5 4 3 1 0 0 1 2 1 0 0 0 0 0 0 0 0 0 0 0 0 0 0 0 0 0 0 0 0 0 0 0 0 0 0 0
4 4 5 7 9 9 8 5 4 3 1 0 0 1 1 1 0 0 0 0 0 0 0 0 0 0 0 0 0 0 0 0 0 0 0 0 0 0 0 0 0 0 0
3 3 4 6 6 5 5 4 4 3 2 1 0 0 0 0 0 0 0 0 0 0 0 0 0 0 0 0 0 0 0 0 0 0 0 0 0 0 0 0 0 0 0
3 2 2 3 3 2 2 2 1 2 2 1 0 0 0 0 0 0 0 0 0 0 0 0 0 0 0 0 0 0 0 0 0 0 0 0 0 0 0 0 0 0 0
4 3 2 1 1 1 0 0 0 1 1 1 0 0 0 0 0 0 0 0 0 0 0 0 0 0 0 0 0 0 0 0 0 0 0 0 0 0 0 0 0 0 0
4 3 2 0 0 0 0 0 1 1 1 0 0 0 0 0 0 0 0 0 0 0 0 0 0 0 0 0 0 0 0 0 0 0 0 0 0 0 0 0 0 0 0
3 3 1 0 0 0 0 1 2 2 1 1 1 1 0 0 0 0 0 0 0 0 0 0 0 0 0 0 0 0 0 0 0 0 0 0 0 0 0 0 0 0 0
3 2 1 0 0 0 0 1 3 3 3 2 2 1 0 0 0 0 0 0 0 0 0 0 0 0 0 0 0 0 0 0 0 0 0 0 0 0 0 0 0 0 0
3 3 1 0 0 0 0 1 2 2 2 2 1 1 0 0 0 0 0 0 0 0 0 0 0 0 0 0 0 0 0 0 0 0 0 0 0 0 0 0 0 0 0
3 3 2 0 0 0 0 1 1 1 1 1 0 0 0 0 0 0 0 0 0 0 0 0 0 0 0 0 0 0 0 0 0 0 0 0 0 0 0 0 0 0 0
3 3 1 0 0 0 0 0 0 0 0 0 0 0 0 0 0 0 0 0 0 0 0 0 0 0 0 0 0 0 0 0 0 0 0 0 0 0 0 0 0 0 0
3 2 1 0 0 0 0 0 0 0 0 0 0 0 0 0 0 0 0 0 0 0 0 0 0 0 0 0 0 0 0 0 0 0 0 0 0 0 0 0 0 0 0
3 2 1 0 0 0 0 0 0 0 0 0 0 0 0 0 0 0 0 0 0 0 0 0 0 0 0 0 0 0 0 0 0 0 0 0 0 0 0 0 0 0 0
2 1 0 0 0 0 0 0 0 0 0 0 0 0 0 0 0 0 0 0 0 0 0 0 0 0 0 0 0 0 0 0 0 0 0 0 0 0 0 0 0 0 0
1 0 0 0 0 0 0 0 0 0 0 0 0 0 0 0 0 0 0 0 0 0 0 0 0 0 0 0 0 0 0 0 0 0 0 0 0 0 0 0 0 0 0
0 0 0 0 0 0 0 0 0 0 0 0 0 0 0 0 0 0 0 0 0 0 0 0 0 0 0 0 0 0 0 0 0 0 0 0 0 0 0 0 0 0 0
0 0 0 0 0 0 0 0 0 0 0 0 0 0 0 0 0 0 0 0 0 0 0 0 0 0 0 0 0 0 0 0 0 0 0 0 0 0 0 0 0 0 0
0 0 0 0 0 0 0 0 0 0 0 0 0 0 0 0 0 0 0 0 0 0 0 0 0 0 0 0 0 0 0 0 0 0 0 0 0 0 0 0 0 0 0
0 0 0 0 0 0 0 0 0 0 0 0 0 0 0 0 0 0 0 0 0 0 0 0 0 0 0 0 0 0 0 0 0 0 0 0 0 0 0 0 0 0 0
0 0 0 0 0 0 0 0 0 0 0 0 0 0 0 0 0 0 0 0 0 0 0 0 0 0 0 0 0 0 0 0 0 0 0 0 0 0 0 0 0 0 0
Wind_Speed
5 6 7 7 7 8 8 9 9 9 10 10 10 10 11 11 11 11 11 11 11 11 12 12 13 13 14 14 14 14 13 13 13 13 13 14 14 14 14 14 13 10 14
6 7 8 7 8 8 9 9 9 10 10 10 10 10 10 10 10 11 11 11 12 12 12 12 13 13 13 13 13 13 12 12 11 11 11 12 13 14 14 14 13 10 14
6 8 8 7 8 9 9 9 9 10 9 9 9 10 10 10 10 11 11 11 11 11 12 12 12 12 12 12 12 12 11 11 10 9 8 6 8 13 13 14 14 14 14
7 8 7 8 9 9 10 10 9 10 9 9 9 9 9 10 10 10 10 10 10 11 11 11 11 11 11 11 11 11 10 10 9 8 5 6 6 12 13 13 13 13 13
7 7 7 8 9 9 10 10 10 9 9 9 9 9 9 9 9 9 9 9 10 10 10 10 10 10 11 11 10 10 9 9 8 7 6 7 6 11 12 12 12 12 11
7 7 7 9 9 9 10 10 10 9 9 9 9 9 9 9 9 9 9 9 9 10 10 10 10 10 10 10 9 9 8 8 6 5 6 6 5 10 11 10 10 10 10
6 7 7 8 9 9 9 9 10 9 9 9 9 9 9 9 9 10 9 9 9 9 10 10 10 10 10 9 9 8 7 7 4 5 5 6 7 10 11 10 9 9 9
6 6 6 8 9 8 8 9 9 9 9 8 9 9 9 9 9 9 9 9 9 9 9 9 9 9 9 8 8 8 7 6 5 6 5 5 8 10 10 9 9 9 9
6 6 5 5 6 8 8 8 8 8 8 8 8 9 8 8 8 8 8 8 8 9 9 9 8 8 8 8 8 8 7 7 5 4 6 5 8 9 9 9 8 8 9
6 5 4 4 4 5 5 7 7 7 7 8 7 7 7 7 8 7 7 7 8 8 8 8 8 8 7 7 7 6 7 6 5 5 4 5 9 9 9 8 8 7 8
5 4 4 3 4 3 3 5 5 5 5 5 5 5 4 3 4 4 6 7 7 7 7 7 7 6 6 5 6 5 5 3 4 4 3 6 9 9 8 8 8 8 7
4 3 3 3 3 3 3 3 2 2 2 2 2 2 2 2 3 4 5 7 7 7 7 6 5 4 3 2 2 3 2 3 3 3 4 8 8 8 7 7 7 7 8
4 3 3 2 3 3 2 2 1 1 1 2 3 3 2 2 2 3 2 3 3 4 3 3 3 2 2 2 2 2 2 2 2 3 4 8 7 7 6 6 6 6 6
4 3 3 3 3 3 2 2 2 1 1 2 2 3 2 2 2 2 2 2 2 2 2 2 2 3 3 3 3 3 3 2 2 3 4 7 7 7 6 5 5 5 5
4 3 3 3 3 2 2 1 2 2 2 2 2 2 3 2 2 2 2 2 2 2 2 2 2 2 3 2 2 3 4 3 3 3 3 7 8 7 7 7 6 6 5
3 4 3 3 3 3 2 1 2 2 2 2 2 2 3 2 2 2 2 2 2 2 2 2 2 2 2 2 2 3 3 3 3 4 3 4 7 7 7 7 6 6 6
3 3 3 3 3 3 2 1 2 2 2 2 2 2 3 3 2 2 2 2 2 2 2 2 2 2 2 2 2 2 2 3 3 3 3 2 3 5 6 7 7 6 6
4 4 3 2 3 3 2 2 1 2 2 2 2 2 2 2 2 2 2 2 2 2 1 1 1 1 2 1 2 2 2 2 2 2 2 2 2 2 4 6 6 6 6
4 4 4 3 3 3 3 2 2 2 2 2 2 2 2 2 2 2 2 1 2 2 1 1 1 1 1 1 1 1 1 1 1 1 2 2 2 2 2 3 5 6 6
3 4 4 3 3 3 3 2 2 1 1 1 1 2 2 2 2 2 2 2 2 1 1 1 1 1 1 1 1 1 0 0 0 1 1 1 2 2 2 2 2 3 6
3 4 4 4 3 3 2 2 2 1 1 1 1 2 2 2 2 2 1 1 1 1 1 1 1 1 1 1 1 1 1 1 1 1 1 1 1 1 1 1 1 1 2
3 4 4 4 4 3 2 2 2 2 1 1 1 1 1 2 2 2 2 1 1 1 1 1 1 1 0 1 1 0 1 1 1 1 1 1 1 1 0 0 0 1 1
3 3 3 3 3 3 2 2 2 2 1 1 1 1 1 2 2 2 2 2 1 1 1 1 1 2 1 0 1 1 1 1 1 1 1 1 1 1 1 1 0 0 1
2 2 3 3 3 3 3 2 3 2 2 2 2 2 2 2 2 2 2 2 2 1 1 1 1 1 1 1 1 1 0 1 1 1 2 1 1 1 1 1 1 1 1
2 2 2 3 3 3 2 2 2 2 1 1 2 2 2 2 2 2 2 2 2 1 2 1 1 1 1 1 1 0 1 1 1 1 2 2 1 1 1 1 1 1 1
2 2 2 3 2 3 3 2 2 2 2 2 2 2 2 1 2 2 2 2 2 2 2 2 2 1 1 1 1 1 1 1 1 1 1 2 2 2 2 2 2 1 1
Wind_Direction
91 101 88 82 86 87 88 86 82 82 79 76 75 73 72 71 72 70 69 67 68 70 72 72 71 70 69 70 70 70 71 73 75 75 77 79 79 75 72 70 69 69 71
106 110 92 83 87 88 88 86 83 83 81 78 77 77 75 74 73 71 69 68 69 70 71 72 73 71 70 69 69 70 72 74 75 74 76 78 79 77 73 69 70 70 69
101 108 100 85 86 86 87 86 86 84 82 80 78 79 78 75 73 72 69 68 68 70 72 73 74 72 70 69 68 67 69 70 68 66 68 74 78 77 75 72 71 70 69
99 103 101 89 87 86 85 85 85 83 82 81 80 79 80 77 75 73 71 70 70 71 73 74 75 74 72 70 67 67 66 60 57 55 63 66 68 74 73 73 72 70 68
95 98 100 93 91 89 86 84 83 83 81 81 81 79 78 78 76 74 73 73 73 74 75 78 77 76 74 70 67 63 59 54 47 51 63 65 62 70 70 70 71 70 68
92 92 99 95 93 88 86 84 81 81 81 79 77 77 78 77 75 72 73 74 76 78 78 77 77 77 75 72 65 59 54 46 40 53 62 64 63 69 70 69 69 69 67
94 94 102 97 94 88 86 84 81 79 80 81 80 78 78 78 75 71 72 73 76 79 79 77 77 76 74 69 63 55 46 35 46 58 62 62 64 68 69 68 67 66 66
95 97 104 99 92 87 85 83 82 79 77 78 80 78 76 75 78 75 74 74 74 77 80 79 77 76 74 69 61 48 34 26 44 63 70 67 67 66 66 66 65 64 62
97 98 102 108 98 87 83 81 81 83 79 77 78 77 75 72 73 77 76 79 78 78 78 78 77 76 75 71 60 43 26 21 30 50 68 67 68 67 66 65 66 64 62
99 101 101 101 101 102 96 85 82 82 81 79 78 74 74 73 69 69 74 78 82 81 79 76 75 73 75 70 57 38 23 26 38 48 55 66 69 67 64 61 61 60 60
92 96 101 102 99 101 106 100 92 86 83 83 82 77 77 79 77 69 71 76 81 84 83 76 77 73 76 68 51 38 41 37 47 54 53 68 72 68 64 59 56 56 56
113 104 98 99 105 103 106 111 110 103 97 83 81 77 71 69 77 82 79 78 75 75 75 70 67 68 67 65 41 39 39 42 52 59 55 66 70 66 62 60 59 57 55
128 114 107 100 99 102 106 106 91 85 80 68 58 52 62 75 81 84 87 83 78 73 63 60 61 41 40 44 49 41 31 44 58 62 55 61 65 63 63 63 60 56 53
131 125 118 109 105 102 101 104 106 94 83 74 62 54 55 55 54 58 66 69 67 62 49 47 56 50 42 38 46 38 31 40 57 72 63 61 59 58 59 60 58 55 49
132 127 115 111 113 110 105 100 98 95 95 92 82 63 63 67 61 57 57 55 62 58 45 37 44 51 47 35 42 48 37 35 50 71 72 65 57 51 50 52 54 52 47
128 131 129 119 111 111 106 105 103 97 87 84 81 76 73 77 74 66 63 57 54 50 39 40 39 47 51 40 43 47 47 36 45 62 79 70 59 50 43 39 41 39 38
138 126 129 132 116 114 113 108 96 101 105 90 82 76 73 74 78 80 77 67 58 52 43 43 38 42 47 37 36 40 47 50 52 59 63 72 63 52 45 34 27 25 23
141 138 139 129 125 124 122 113 97 95 103 106 102 91 81 78 79 83 87 78 61 60 50 58 63 57 47 32 24 24 36 45 57 59 60 66 64 53 39 32 23 17 13
146 144 144 143 143 134 123 115 106 99 100 109 108 101 92 89 83 90 93 88 75 73 60 52 60 63 54 23 3 11 30 56 61 70 70 66 68 61 47 29 25 16 10
145 146 146 149 142 136 126 117 111 99 95 98 113 115 110 96 89 88 92 82 81 88 67 63 68 61 72 27 353 356 329 162 106 101 95 79 81 69 57 38 20 7 10
149 149 151 154 149 139 135 140 140 142 133 115 119 122 120 114 108 107 100 105 100 114 116 95 85 87 52 33 35 349 316 232 142 160 133 111 97 91 82 58 32 17 356
145 152 154 156 153 149 153 154 144 134 134 129 112 107 126 130 132 128 129 139 138 130 121 114 104 97 70 69 97 37 310 316 290 212 160 159 159 120 116 81 58 31 349
145 150 156 156 153 152 147 127 115 103 100 109 141 167 169 146 137 134 146 148 154 149 160 162 145 131 171 264 66 139 160 243 310 284 222 191 181 186 219 216 207 276 306
149 132 141 147 147 151 151 158 167 175 184 196 182 180 178 172 155 154 153 155 157 157 153 176 153 146 149 199 295 321 167 165 175 302 300 261 221 225 239 265 247 253 276
128 128 132 141 149 152 152 166 170 175 180 162 165 171 183 188 176 171 168 166 168 168 163 159 162 156 169 175 187 238 302 318 237 190 266 292 306 279 258 251 240 237 249
120 127 138 144 152 157 167 182 177 183 170 154 168 182 192 188 192 187 182 173 175 176 184 185 182 180 187 187 197 188 175 198 237 221 245 274 279 274 272 256 245 231 240